Location: ??????
(37.8160°N, 24.0553°E)
Time: 02:16:37
(UTC+00:00)

Daily predictions for brighter satellites

Satellite Brightness Start Highest point End
(mag) Time Altitude Azimuth Time Altitude Azimuth Time Altitude Azimuth
NOSS 3-2 (C) 4.4 02:12:37 54° NNE 02:13:51 59° NE 02:22:21 10° SE
CENTAUR R/B 3.5 02:14:20 52° N 02:16:11 62° NE 02:24:58 10° SE
ATLAS 2AS CENTAUR R/B 3.1 02:27:56 54° S 02:29:58 76° ESE 02:37:54 10° NE
NOSS 3-2 (A) 4.0 02:41:09 68° WSW 02:41:22 68° WSW 02:49:56 10° SSE
Atlas Centaur 2 3.3 02:44:04 37° S 02:44:45 38° S 02:50:06 10° ESE
ERS-2 4.4 02:42:25 10° SE 02:44:42 24° E 02:44:42 24° E
BREEZE-M DEB (TANK) 4.5 02:45:10 52° NW 02:46:34 58° NNW 03:13:52 10° ENE
Lacrosse 5 2.8 02:52:48 39° NNE 02:52:48 39° NNE 02:56:02 10° NE
Cosmos 1538 Rocket 4.2 02:53:03 65° SSE 02:53:03 65° SSE 02:57:29 10° SSE
RESURS DK-1 4.1 02:50:45 19° SSE 02:53:02 32° ESE 02:56:45 10° NE
ADEOS 3.8 02:51:01 10° NNE 02:56:14 69° ESE 03:01:25 10° S
ATLAS CENTAUR R/B 4.1 02:56:38 10° NE 02:57:07 10° NE 02:57:36 10° NE
OAO 2 Rocket 3.6 02:58:09 60° SSE 02:58:09 60° SSE 03:02:52 10° E
Cosmos 2263 Rocket 3.8 03:01:26 22° N 03:01:26 22° N 03:03:33 10° N
USA 238 DEB 3.8 02:58:21 58° W 02:58:51 59° WSW 03:06:14 10° SSE
USA 238 3.8 02:58:26 58° W 02:58:57 59° WSW 03:06:20 10° SSE
SJ 16-02 3.4 03:08:47 18° N 03:08:47 18° N 03:09:55 10° NNE
Cosmos 1898 Rocket 4.2 03:04:28 10° S 03:09:36 53° ESE 03:14:47 10° NNE
Meteor 1-4 Rocket 3.4 03:12:33 46° ESE 03:12:33 46° ESE 03:15:32 10° SSE
Cosmos 1709 Rocket 4.0 03:13:11 10° SSW 03:19:25 57° W 03:25:42 10° N
FENGYUN 3A 3.6 03:15:01 10° N 03:20:21 62° WNW 03:25:38 10° SSW
Cosmos 2181 Rocket 4.0 03:15:43 10° N 03:21:56 83° E 03:28:03 10° S
Cosmos 2084 4.4 03:23:14 36° SSW 03:23:14 36° SSW 03:26:28 10° S
Cosmos 1408 Rocket 3.7 03:18:06 10° S 03:22:33 75° E 03:27:00 10° N
COSMO-SKYMED 1 3.2 03:22:08 10° SSE 03:26:21 54° ENE 03:30:36 10° N
Cosmos 1937 Rocket 4.2 03:21:49 10° S 03:26:48 54° ESE 03:31:51 10° NNE
CZ-4C R/B 1.8 03:25:49 43° WSW 03:27:21 69° NW 03:32:57 10° NNE
Meteor 2-3 Rocket 3.7 03:23:31 10° SSW 03:29:09 63° W 03:34:53 10° N
Cosmos 1603 3.9 03:30:28 42° W 03:31:08 44° WSW 03:36:27 10° S
BREEZE-M DEB (TANK) 4.3 03:30:34 25° NW 03:34:05 42° NNE 03:37:15 10° E
ATLAS 3B R/B 3.4 03:30:35 13° NNW 03:36:44 55° NE 03:43:48 10° SE
Cosmos 1943 3.5 03:36:00 37° WNW 03:37:30 45° WSW 03:42:52 10° S
Lacrosse 4 Rocket 1.4 03:38:10 44° NW 03:39:23 65° WSW 03:43:45 10° SSE
CZ-4B R/B 3.0 03:39:48 10° NNE 03:44:18 87° WNW 03:48:39 10° SSW
Cosmos 1689 Rocket 2.6 03:41:52 10° SSE 03:44:39 54° ENE 03:46:15 22° N
SAR-Lupe-4 3.4 03:42:31 10° SSE 03:46:04 86° WSW 03:48:19 22° NNW
Cosmos 1862 3.9 03:44:49 10° S 03:48:48 60° E 03:52:48 10° NNE
Cosmos 2074 Rocket 3.9 03:43:10 10° S 03:49:21 86° W 03:55:36 10° N
Aureole 2 Rocket 3.2 03:47:18 10° S 03:49:40 37° ESE 03:52:03 10° NE
SKYMED 3 4.4 03:46:01 10° S 03:50:21 78° W 03:54:42 10° NNW
Genesis I 3.3 03:49:54 38° W 03:50:48 47° NW 03:54:31 10° NNE
Cosmos 858 Rocket 4.4 03:45:49 10° SSW 03:51:01 89° WNW 03:56:17 10° NNE
Cosmos 990 Rocket 4.1 03:47:26 10° SW 03:52:31 52° WNW 03:57:39 10° N
Cosmos 1461 4.1 03:52:16 27° WSW 03:52:31 27° WSW 03:56:16 10° SSW
EO 1 Delta rocket 4.5 03:49:15 10° SSE 03:54:26 61° ENE 03:59:02 10° N
ALOS 4.0 03:51:58 10° NNW 03:53:16 16° NNW 03:53:16 16° NNW
YAOGAN 6 4.3 03:53:24 10° NNE 03:56:37 34° E 03:59:47 10° SSE
deb Chang Zheng 4 4.1 03:53:06 10° N 03:57:05 36° WNW 04:01:03 10° SW
Cosmos 923 Rocket 4.1 03:53:37 17° NNW 03:57:38 54° WSW 04:02:47 10° S
CZ-4B R/B 3.1 03:58:48 10° SSW 03:59:53 16° SW 03:59:53 16° SW
NOSS 3-4 (A) 4.5 04:00:49 21° WNW 04:02:09 22° NW 04:06:57 10° N
NOSS 3-4 (C) 4.5 04:00:54 21° WNW 04:02:16 23° NW 04:07:06 10° N
SAR-Lupe-1 4.2 03:59:36 10° S 04:03:05 52° W 04:05:49 16° NNW
PSLV R/B 4.2 04:00:33 10° NNE 04:04:22 64° ESE 04:08:04 10° S
Cosmos 405 Rocket 2.5 04:01:28 10° S 04:05:09 89° ESE 04:08:53 10° N
CENTAUR R/B 3.9 04:01:35 19° WNW 04:06:42 34° WSW 04:14:20 10° S
Cosmos 2184 Rocket 4.0 04:00:33 10° SSW 04:06:47 65° W 04:13:08 10° N
Milstar 3 Cent rocket 4.4 04:00:16 13° WSW 04:07:01 48° S 04:22:06 10° ESE
ASTRO F (AKARI) 4.1 04:04:47 10° N 04:07:55 82° WNW 04:11:04 10° SSW
PSLV R/B 4.0 04:09:46 10° S 04:13:50 57° W 04:17:55 10° NNW
USA 234 3.4 04:07:29 10° NE 04:14:03 80° SE 04:20:36 10° SW
Cosmos 158 Rocket 4.5 04:10:38 15° NW 04:14:14 36° WSW 04:18:46 10° SSW
Cosmos 1812 2.8 04:10:31 10° N 04:14:22 78° E 04:18:11 10° S
SKYMED 2 4.0 04:10:22 10° SSW 04:14:26 40° W 04:18:33 10° NNW
Cosmos 2228 Rocket 3.2 04:10:05 10° N 04:14:31 77° E 04:18:53 10° S
Cosmos 1515 Rocket 3.9 04:11:06 10° NNW 04:15:22 46° W 04:19:37 10° SSW
Cosmos 1844 Rocket 2.9 04:11:05 10° SW 04:16:30 48° WNW 04:21:59 10° N
SL-4 R/B 4.3 04:16:07 10° N 04:16:41 10° N 04:17:16 10° N
Cosmos 1151 Rocket 4.3 04:17:01 18° WNW 04:18:11 20° W 04:21:17 10° SW
ERS-2 3.7 04:16:38 10° SW 04:19:01 17° W 04:19:18 16° W
GPS 2-04 Rocket1 3.0 04:16:28 16° W 04:19:24 57° S 04:23:07 10° ESE
Cosmos 1782 3.7 04:16:35 12° NNW 04:19:45 28° W 04:23:13 10° SSW
ATLAS 2AS CENTAUR R/B 3.8 04:15:31 12° W 04:21:42 29° NW 04:28:20 10° NNE
COSMOS 2455 2.8 04:17:03 10° SSW 04:23:04 86° WNW 04:29:09 10° NNE
Spot 2 4.4 04:19:01 10° N 04:24:11 81° WNW 04:29:11 10° SSW
Cosmos 1680 Rocket 4.0 04:20:36 10° NW 04:25:31 39° W 04:30:24 10° S
Cosmos 1844 3.9 04:24:55 10° SW 04:30:12 45° WNW 04:35:33 10° N
RESURS DK-1 3.7 04:28:02 10° WSW 04:31:07 20° WNW 04:34:13 10° N
Atlas Centaur 2 3.1 04:27:40 10° WSW 04:33:28 38° S 04:38:06 10° ESE
NOAA 6 4.0 04:28:52 10° N 04:34:00 82° WNW 04:39:06 10° SSW
Cosmos 1500 Rocket 4.2 04:30:34 10° SW 04:34:25 32° WNW 04:38:19 10° NNW
Lacrosse 5 3.5 04:32:02 11° WNW 04:34:46 16° NNW 04:37:58 10° NNE
Cosmos 372 Rocket 3.9 04:30:38 10° SSW 04:35:41 69° WNW 04:40:47 10° NNE
ATLAS CENTAUR R/B 1.2 04:32:34 10° NW 04:36:23 77° WSW 04:40:24 10° SSE
CZ-4B DEB 4.2 04:32:15 10° N 04:37:42 74° WNW 04:43:09 10° SSW
Meteor 2-6 Rocket 4.4 04:35:05 10° NNW 04:40:15 47° W 04:45:28 10° SSW
CZ-2C R/B 3.6 04:38:55 10° S 04:40:40 14° SSE 04:42:26 10° ESE
USA 81 4.5 04:36:00 10° S 04:41:12 69° E 04:46:27 10° N
H-2A R/B 3.5 04:38:19 10° N 04:41:46 30° WNW 04:45:09 10° SW
OAO 2 Rocket 3.8 04:37:30 10° W 04:42:26 55° S 04:47:28 10° ESE
PAYLOAD B 4.2 04:38:27 10° NNE 04:43:58 80° WNW 04:49:26 10° SSW
Cosmos 1437 Rocket 2.6 04:40:24 10° NNW 04:44:10 79° W 04:47:55 10° S
Okean O Rocket 2.0 04:41:15 10° NNE 04:45:42 73° ESE 04:50:08 10° S
ATLAS 5 CENTAUR R/B 1.6 04:43:26 10° SSW 04:47:22 77° ESE 04:51:41 10° NE
Gbstr 26 Del rocket 2.7 04:43:52 10° NW 04:47:38 77° SW 04:51:50 10° SE
SMAP 3.1 04:43:45 10° NNE 04:48:25 90° WNW 04:53:04 10° SSW
CZ-2C R/B 3.2 04:46:36 10° SSE 04:52:03 66° ENE 04:57:24 10° N
Nadezhda 3 Rocket 4.2 04:46:37 10° NNW 04:52:43 54° W 04:58:42 10° SSW
